Weather History for Monticello, AR

Change the Weather History Date:

Saturday, November 10, 2012

  Actual Average Record
Temperature  
Mean Temperature 62 °F -  
Max Temperature 73 °F 65 °F 82 °F (2002)
Min Temperature 51 °F 42 °F 21 °F (1953)
Degree Days  
Heating Degree Days 3    
Growing Degree Days 12 (Base 50)    
Moisture  
Dew Point 54 °F    
Average Humidity 71    
Maximum Humidity 96    
Minimum Humidity 52    
Precipitation  
Precipitation 0.00 in - - ()
Sea Level Pressure  
Sea Level Pressure 30.12 in    
Wind  
Wind Speed 7 mph (SSE)    
Max Wind Speed 13 mph    
Max Gust Speed 20 mph    
Visibility 10 miles    
Events      
Averages and records for this station are not official NWS values.
T = Trace of Precipitation, MM = Missing Value Source: NWS Daily Summary

Daily Weather History Graph

Daily Weather History Graph

Search for Another Location

Airport:

Trip Planner

Search our weather history database for the weather conditions in past years. The results will help you decide how hot, cold, wet, or windy it might be!

Date:

Astronomy

Nov. 10, 2012 Rise Set
Actual Time 6:34 AM CST 5:06 PM CST
Civil Twilight 6:08 AM CST 5:33 PM CST
Nautical Twilight 5:38 AM CST 6:03 PM CST
Astronomical Twilight 5:09 AM CST 6:32 PM CST
Moon 2:49 AM CST (11/10) 2:46 PM CST (11/10)
Length of Visible Light 11h 24m
Length of Day
10h 32m
Waning Crescent, 14% of the Moon is Illuminated
Nov 10
Waning Crescent
Nov 13
New
Nov 20
First Quarter
Nov 28
Full
Dec 6
Last Quarter

Hourly Weather History & Observations

Time (CST) Temp. Dew Point Humidity Pressure Visibility Wind Dir Wind Speed Gust Speed Precip Events Conditions
12:53 AM 57.0 °F 50.0 °F 77% 30.13 in 10.0 mi South 5.8 mph - N/A   Clear
1:53 AM 55.9 °F 51.1 °F 84% 30.14 in 10.0 mi South 5.8 mph - N/A   Clear
2:53 AM 55.0 °F 51.1 °F 86% 30.14 in 10.0 mi South 4.6 mph - N/A   Clear
3:53 AM 52.0 °F 48.9 °F 89% 30.14 in 10.0 mi South 3.5 mph - N/A   Clear
4:53 AM 52.0 °F 50.0 °F 93% 30.14 in 10.0 mi South 5.8 mph - N/A   Clear
6:53 AM 51.1 °F 50.0 °F 96% 30.17 in 7.0 mi SSE 5.8 mph - N/A   Clear
7:53 AM 53.1 °F 51.1 °F 93% 30.19 in 10.0 mi SSE 5.8 mph - N/A   Clear
8:53 AM 59.0 °F 53.1 °F 81% 30.20 in 10.0 mi SSE 8.1 mph - N/A   Clear
9:53 AM 64.9 °F 54.0 °F 68% 30.19 in 10.0 mi South 8.1 mph - N/A   Clear
10:53 AM 70.0 °F 55.0 °F 59% 30.18 in 10.0 mi SSE 10.4 mph - N/A   Clear
11:53 AM 73.0 °F 55.9 °F 55% 30.14 in 10.0 mi SSW 10.4 mph 19.6 mph N/A   Clear
12:53 PM 73.9 °F 55.9 °F 53% 30.10 in 10.0 mi SSW 10.4 mph - N/A   Clear
1:53 PM 73.9 °F 55.9 °F 53% 30.07 in 10.0 mi SE 9.2 mph - N/A   Partly Cloudy
2:53 PM 73.9 °F 55.9 °F 53% 30.05 in 10.0 mi SSE 12.7 mph - N/A   Partly Cloudy
3:53 PM 73.9 °F 55.0 °F 52% 30.05 in 10.0 mi South 8.1 mph - N/A   Clear
4:53 PM 71.1 °F 55.9 °F 59% 30.06 in 10.0 mi SSE 4.6 mph - N/A   Clear
5:53 PM 68.0 °F 55.9 °F 65% 30.07 in 10.0 mi Calm Calm - N/A   Clear
6:53 PM 66.0 °F 55.0 °F 68% 30.07 in 10.0 mi SE 4.6 mph - N/A   Clear
7:53 PM 64.9 °F 54.0 °F 68% 30.07 in 10.0 mi SSE 5.8 mph - N/A   Clear
8:53 PM 66.0 °F 54.0 °F 65% 30.08 in 10.0 mi SSE 8.1 mph - 0.00 in   Scattered Clouds
10:53 PM 64.0 °F 55.0 °F 73% 30.08 in 10.0 mi SSE 6.9 mph - N/A   Partly Cloudy
11:53 PM 64.0 °F 55.0 °F 73% 30.08 in 10.0 mi SSE 9.2 mph - N/A   Scattered Clouds